默认 日期 大小 文件数 浏览量 最新下载 xml
40 pdf磁力链接相关资源由用户搜索指令自动获取,结果来源于网络,本站不存储任何资料,亦不承担任何责任,请于24小时内删除,搜索到2662个磁力,用时11ms。
    ... "Hellborg Jonas Chord Bassics.pdf": 17515709, "Keeping You ... Travel Argentina 10th Edition August.pdf": 46815564, "Wiley Physics ... Deathstalker 3 Deathstalker War.pdf": 1054006, "Professional SQL ... And Stress Sensors 9789537619312.pdf": 59327608, "Changing Lanes ...
创建时间: 2022-01-26 09:37:55 大小:430.27 MB 文件数量:81 热度:6 最近下载:2025-03-02 03:20:01
    ... jpg": 80510, "Pluggable Authentication Modules.pdf": 12645863, "Website Development with ... 101865, "Android Studio Application Development.pdf": 2230293, "Intense Dark Hearts Book ... "Mac Programming for Absolute Beginners.pdf": 11496166, "Law Of Financial ...
创建时间: 2022-01-26 09:40:40 大小:411.52 MB 文件数量:81 热度:7 最近下载:2025-01-23 23:53:01
    ... , "2021 06 01 Playboy Africa.pdf": 39234223, "SundaySportFebruary142021.jpg": 225784, " ... ": 105061, "Fitness Gurls SeptemberOctober 2021.pdf": 38005170, "STRIPLVKINKSMALLBOOBSVOL130March2021.jpg": 236020, "STRIPLVKINKSMALLBOOBSVOL130March2021 ...
创建时间: 2022-01-26 09:51:08 大小:2.61 GB 文件数量:81 热度:7 最近下载:2025-02-03 17:51:01
    ... ": 122602, "Chateux Magazine JanuaryJuly 2022.pdf": 17655434, "Playmate360September2019March2020.jpg": 524831, " ... , "Arcgirl Playbook October 2019April 2020.pdf": 96633306, "PurpleCandyUKSpecialEditionJuneJuly2021.jpg": 540438, " ...
创建时间: 2022-01-26 09:51:29 大小:2.05 GB 文件数量:81 热度:8 最近下载:2025-02-23 09:50:05
    ... 81160, "Travel Istanbul 7 Beyoglu.pdf": 3215904, "MySQL Enterprise Solutions.jpg ... 115107, "Backstory Philip Marshall Durbrow.pdf": 13424410, "Dear Kamala Peggy Brooks ... Cinematography Motion Picture Filming Techniques.pdf": 62851160, "Dk Eyewitness Travel ...
创建时间: 2022-01-26 10:48:54 大小:608.29 MB 文件数量:80 热度:7 最近下载:2025-03-26 08:52:03
    ... 18 Eroticism Magazine.pdf": 109062854, "Escort Volume 40 Issue 7 ... 154685, "Escort Volume 40 Issue 7 2020.pdf": 74704931, "FHM ... Volume26Noy2020.jpg": 190591, "NaughtyNeighbors Volume26Noy2020.pdf": 101546112, "TemptingPhotoMagazineJanuary2020.jpg": 163265 ...
创建时间: 2022-01-26 10:56:39 大小:2.04 GB 文件数量:81 热度:6 最近下载:2025-02-17 14:01:56
    ... ": 59086, "Boudoir Inspiration June 2020.pdf": 19731457, "PoshiPhotoMagazineOctober2021.jpg": 261481, "PoshiPhotoMagazineOctober2021 ... Magazine Issue 222 May 2021.pdf": 21603539, "RHKMagazineIssue213December2020.jpg": 912336, "RHKMagazineIssue213December2020 ...
创建时间: 2022-01-26 11:16:36 大小:2.36 GB 文件数量:81 热度:7 最近下载:2025-01-06 17:46:10
    ... Anthology.jpg": 40913, "ThoughtWorks Anthology.pdf": 3663263, "Neon Helix Nik ... 85418, "Bioinformatics Programming Using Python.pdf": 4908772, "Chained The Reaper Saga ... Northern Australia Duke University Press.pdf": 22652403, "Multi Objective Optimization ...
创建时间: 2022-01-26 11:32:40 大小:530.62 MB 文件数量:81 热度:7 最近下载:2025-02-05 07:58:05
    ... ": 144031, "Rails 4 Application Development.pdf": 25625843, "Napoleons Rosebud Humphry Knipe ... Eyewitness Travel Guides Dorling Kindersley.pdf": 63683269, "For Dummies Timothy ... Computing I Stojmenovic Wiley 2002.pdf": 3445653, "Creative Diy Microcontroller ...
创建时间: 2022-01-26 11:39:12 大小:526.77 MB 文件数量:81 热度:6 最近下载:2025-01-07 18:45:02
    ... 01 Club Specials with videos.pdf": 173775507, "DisrobingmodelmagazineJulyAugust2021.jpg": 175059, " ... 01 Interracial Adult Photo Magazine.pdf": 88889100, "StunningBeautyBeautyandGlamourVolume25January2021.jpg": 133572, " ...
创建时间: 2022-01-26 12:08:49 大小:1.9 GB 文件数量:81 热度:7 最近下载:2025-01-22 06:44:04
    ... "Club 2009 03.pdf": 39667309, "Vol 40 No 07.jpg": 185205 ... , "Vol 40 No 07.pdf": 85109688, "Cheri 2019 ... 198262, "Interviu N 2000.pdf": 27302081, "40 Magazine N 060.jpg": ... 05.pdf": 140603306, "40 Something SP231 Original.jpg": 202304, "40 Something ...
创建时间: 2022-01-26 12:34:18 大小:2.49 GB 文件数量:80 热度:7 最近下载:2025-10-12 01:34:03
    ... 36096, "Between Necessity And Probability.pdf": 3832925, "Please Consider Making A ... "Platform Embedded Security Technology Revealed.pdf": 5000612, "The 80 80 Marriage ... Season Ashley Christensen Kaitlyn Goalen.pdf": 296664582, "Philosophy Of Mind ...
创建时间: 2022-01-26 12:56:03 大小:490.99 MB 文件数量:81 热度:7 最近下载:2025-01-19 21:59:05
    ... ": 146808, "Playboy Australia October 2018.pdf": 18834103, "GoodfellasMensMagazineApril2021.jpg": 197414, " ... jpg": 343308, "2019 04 01NylonsWorldAdultFetishPhotoMagazine.pdf": 117631687, "2020 05 01AmateurMILFsNudeKinkyAdultPhotoMagazine.jpg ...
创建时间: 2022-01-26 13:35:12 大小:2.4 GB 文件数量:81 热度:7 最近下载:2025-01-26 15:58:06
    ... ": 138120, "World History.pdf": 155282943, "Bash Pocket ... "Force com Development Blueprints.pdf": 30712631, "Why Startups Fail ... Beginning Java 8 Language Features.pdf": 6818687, "Adobe Premiere ... Electronic Devices And Circuits.pdf": 6824741, "Practical Variable ...
创建时间: 2022-01-26 13:43:04 大小:569.15 MB 文件数量:81 热度:8 最近下载:2025-02-04 12:50:01
    ... 49524, "Creating Google Chrome Extensions.pdf": 8739487, "Linux Mint System Administrator ... 77158, "Religious Ethics Companion Blackwell.pdf": 2716878, "The Scoundrels Daughter Anne ... Roads Travel Guides Dorling Kindersley.pdf": 122071654, "Lessons in Electric ...
创建时间: 2022-01-26 13:45:24 大小:903.12 MB 文件数量:81 热度:6 最近下载:2025-02-24 08:46:01
    ... "Travel East Africa Tanzania.pdf": 2522527, "Applied Drilling ... Costa Rica 10 Full Pdf Ebook.pdf": 24696457, "Nöthin ... Travel Portugal 8 Understanding Directory.pdf": 2447134, "David Drake ... Network Programming 2nd Edition.pdf": 5323279, "English File ...
创建时间: 2022-01-26 14:34:08 大小:390.17 MB 文件数量:81 热度:6 最近下载:2025-02-04 12:50:04
    ... Detection Theory D McNicol 2005.pdf": 13439045, "Redheaded Redemption Redheads ... Music Springer International Publishing Springer.pdf": 4694459, "Chess Fundamentals A Simple ... Best Opening Tactics Sanchez Josè.pdf": 5728770, "Fred Skolnik Encyclopaedia ...
创建时间: 2022-01-26 20:23:41 大小:298.1 MB 文件数量:81 热度:7 最近下载:2025-01-19 04:55:11
    ... 108380, "Flash Multiplayer Virtual Worlds.pdf": 19953331, "Interior Design Masters Routledge ... Island 9th Edition October Full Pdf Ebook.pdf": 35119174, "Werner Feibel The ... and Athropology Berg Publishers 2004.pdf": 2864961, "Ashley RichardEditor Timmers ...
创建时间: 2022-01-26 20:32:37 大小:736.22 MB 文件数量:81 热度:6 最近下载:2025-01-20 23:38:08
    ... 106692, "Mistress November 2020.pdf": 15786589, "PlayboyDenmarkJune2020.jpg": ... , "Playboy Africa April 2020.pdf": 110494460, "PlayboyNewZealandJuly2021.jpg": ... 161664, "Playboy Slovakia AprIl2020.pdf": 119700060, "PlayboyDenmarkDecember2021.jpg": 114265 ...
创建时间: 2022-01-26 20:36:09 大小:2.76 GB 文件数量:81 热度:6 最近下载:2025-01-21 12:48:05
    ... , "Southern Italy 2016 Lonely Planet.pdf": 15610592, "Robert Sheckley The Laertian ... And Umbria Eastern Tuscany Chapter.pdf": 4522159, "Encyclopedia Of Airliners Between ... 2008 Administration with Windows PowerShell.pdf": 10218447, "The Virtual Sales Handbook ...
创建时间: 2022-01-26 21:48:53 大小:808.88 MB 文件数量:81 热度:7 最近下载:2025-01-23 23:53:02